TimeMST,TemperatureF,Dew PointF,Humidity,Sea Level PressureIn,VisibilityMPH,Wind Direction,Wind SpeedMPH,Gust SpeedMPH,PrecipitationIn,Events,Conditions,WindDirDegrees,DateUTC
12:53 AM,25.0,18.0,75,30.33,10.0,WNW,4.6,-,N/A,,Clear,300,2012-11-27 07:53:00
1:53 AM,25.0,17.1,72,30.33,10.0,WSW,4.6,-,N/A,,Clear,250,2012-11-27 08:53:00
2:53 AM,21.9,16.0,78,30.35,10.0,Calm,Calm,-,N/A,,Clear,0,2012-11-27 09:53:00
3:53 AM,21.0,15.1,78,30.36,10.0,Calm,Calm,-,N/A,,Clear,0,2012-11-27 10:53:00
5:53 AM,19.9,15.1,81,30.41,10.0,West,3.5,-,N/A,,Clear,270,2012-11-27 12:53:00
6:53 AM,19.9,14.0,78,30.44,10.0,Calm,Calm,-,N/A,,Clear,0,2012-11-27 13:53:00
7:53 AM,21.9,16.0,78,30.45,10.0,West,4.6,-,N/A,,Clear,270,2012-11-27 14:53:00
8:53 AM,30.9,19.9,64,30.45,10.0,Calm,Calm,-,N/A,,Clear,0,2012-11-27 15:53:00
9:53 AM,35.1,21.0,57,30.43,10.0,ESE,3.5,-,N/A,,Clear,110,2012-11-27 16:53:00
10:53 AM,36.0,21.0,55,30.44,10.0,ESE,3.5,-,N/A,,Clear,110,2012-11-27 17:53:00
11:53 AM,39.9,21.9,49,30.39,10.0,Variable,3.5,-,N/A,,Clear,0,2012-11-27 18:53:00
12:53 PM,43.0,21.9,43,30.36,10.0,ENE,4.6,-,N/A,,Clear,60,2012-11-27 19:53:00
1:53 PM,45.0,21.0,39,30.32,10.0,East,3.5,-,N/A,,Clear,80,2012-11-27 20:53:00
2:53 PM,46.0,21.0,37,30.31,10.0,Calm,Calm,-,N/A,,Clear,0,2012-11-27 21:53:00
3:53 PM,46.9,19.9,34,30.30,10.0,Calm,Calm,-,N/A,,Clear,0,2012-11-27 22:53:00
4:53 PM,43.0,21.0,42,30.32,10.0,Calm,Calm,-,N/A,,Clear,0,2012-11-27 23:53:00
5:53 PM,33.1,21.0,61,30.36,10.0,West,6.9,-,N/A,,Clear,270,2012-11-28 00:53:00
6:53 PM,30.9,19.9,64,30.39,10.0,West,4.6,-,N/A,,Clear,270,2012-11-28 01:53:00
7:53 PM,30.9,19.9,64,30.39,10.0,NW,4.6,-,N/A,,Clear,320,2012-11-28 02:53:00
8:53 PM,28.9,19.0,67,30.37,10.0,West,5.8,-,N/A,,Clear,280,2012-11-28 03:53:00
9:53 PM,28.9,19.0,67,30.37,10.0,Calm,Calm,-,N/A,,Clear,0,2012-11-28 04:53:00
10:53 PM,25.0,18.0,75,30.39,10.0,Calm,Calm,-,N/A,,Clear,0,2012-11-28 05:53:00
11:53 PM,27.0,18.0,69,30.37,10.0,West,5.8,-,N/A,,Clear,280,2012-11-28 06:53:00